User: anonymous   Login
Location: Home
(44.6062°N, 75.6910°W)
Time: 05:12:06
(UTC-04:00)
Language:

Kosmos-931 - Orbit

View from above orbital plane
View from above orbital plane
View from above satellite
View from above satellite

Ground track
Ground track

The orbit data is extracted from the following two-line orbital elements,

1 10150U 77068A   18196.86363501 +.00000810 +00000-0 +00000-0 0  9991
2 10150 068.6697 220.5805 5636858 042.0559 108.8227 02.00504022300724
Epoch (UTC): 15 July 2018 20:43:38
Eccentricity: 0.5636858
inclination: 68.6697°
perigee height: 5213 km
apogee height: 35162 km
right ascension of ascending node: 220.5805°
argument of perigee: 42.0559°
revolutions per day: 2.00504022
mean anomaly at epoch: 108.8227°
orbit number at epoch: 30072

The dashed part of the orbit path shows where the satellite is in the earth's shadow,  

DLR